Flag for USA Past Weather in Avalon (Santa Catalina Island), California, USA — Yesterday and Last 2 Weeks

70 °F


Feels Like: 75 °F
Forecast: 62 / 72 °F
Wind: 3 mph from North

Location: Catalina Airport

Current Time: Oct 26, 2016 at 12:31:19 PM

Latest Report: Oct 26, 2016 at 11:51 AM

Visibility: 10 mi

Pressure: 30.04 "Hg

Humidity: 66%

Dew Point: 58 °F

Location of Avalon (Santa Catalina Island)Location

Past Weather in Avalon (Santa Catalina Island) — Graph


Avalon (Santa Catalina Island) Temperature Yesterday

Maximum temperature yesterday: 66 °F (at 1:51 PM)
Minimum temperature yesterday: 56 °F (at 5:51 AM)
Average temperature yesterday: 61 °F

High & Low Weather Summary for the Past Weeks

High89 °F (Oct 20, 12:51 PM)100% (Oct 13, 7:51 PM)30.15 "Hg (Oct 13, 7:51 PM)
Low55 °F (Oct 11, 7:51 PM)5% (Oct 20, 4:51 PM)29.80 "Hg (Oct 21, 4:51 PM)
Average65 °F66%29.97 "Hg
* Reported Oct 11 10:51 AM — Oct 26 10:51 AM, Avalon (Santa Catalina Island), Weather by CustomWeather, © 2016

Note: Actual official high and low records may vary slightly from our data, if they occured in-between our weather recording intervals... More about our weather records


Avalon (Santa Catalina Island) Weather History for the Previous 24 Hours

Scroll right to see more
Time TempWeatherWind HumidityBarometerVisibility
10:51 AM
Wed, Oct 26
69 °FSunny.5 mph61%30.05 "Hg10 mi
9:51 AM67 °FSunny.No wind73%30.05 "Hg10 mi
8:51 AM61 °FSunny.5 mph90%30.07 "Hg10 mi
7:51 AM63 °FSunny.5 mph60%30.05 "Hg10 mi
7:00 AM58 °FClear.5 mph81%30.07 "Hg10 mi
6:03 AM57 °FFog.9 mph100%30.06 "Hg1 mi
5:59 AM57 °FFog.10 mph100%30.06 "Hg1 mi
5:02 AM57 °FFog.6 mph96%30.06 "Hg1 mi
4:51 AM57 °FFog.6 mph100%30.03 "Hg1 mi
3:51 AM57 °FFog.9 mph100%30.02 "Hg0 mi
2:51 AM63 °FClear.10 mph52%30.02 "Hg10 mi
1:51 AM63 °FClear.6 mph52%30.01 "Hg10 mi
12:51 AM66 °FClear.No wind45%30.02 "Hg10 mi
11:51 PM
Tue, Oct 25
64 °FClear.3 mph50%30.03 "Hg10 mi
10:51 PM64 °FClear.8 mph49%30.03 "Hg10 mi
9:51 PM64 °FClear.6 mph43%30.04 "Hg10 mi
8:51 PM60 °FClear.6 mph72%30.04 "Hg10 mi
7:51 PM57 °FClear.3 mph96%30.06 "Hg10 mi
6:51 PM58 °FClear.8 mph90%30.04 "Hg10 mi
5:51 PM60 °FSunny.10 mph83%30.04 "Hg10 mi
4:51 PM61 °FSunny.12 mph81%30.04 "Hg10 mi
3:51 PM63 °FSunny.10 mph78%30.05 "Hg10 mi
2:51 PM65 °FSunny.8 mph73%30.05 "Hg10 mi
1:51 PM66 °FSunny.9 mph73%30.06 "Hg10 mi
1:04 PM63 °FPartly sunny.7 mph87%30.12 "Hg10 mi
12:51 PM62 °FFog.7 mph90%30.10 "Hg1 mi
12:02 PM62 °FPartly sunny.7 mph90%30.15 "Hg10 mi
Weather by CustomWeather, © 2016

See weather overviewHow to use our weather pages